When you browse on this site, cookies collect data to enhance your experience and personalize the content and advertising you see.
Visit our Privacy Policy to learn more. By continuing to use the site, you agree to this use of cookies and data.
  • en Suisse
  • Liste des pays
  • À 7 jours
  • Température de l'eau
  • Carte météo
  • Widgets météo
  • user-avatar
    Se connecter

    Météo par heure à Côte de l'Or

    Ce jour, 30 Mai, Samedi

    Heure Température Précipitation Vent Pression Humidité
    00:00 +13°C° 0 mm 5 m/s 763 mmHg 96%
    01:00 +13°C° 0 mm 5 m/s 763 mmHg 96%
    02:00 +13°C° 0 mm 4 m/s 763 mmHg 96%
    03:00 +13°C° 0 mm 4 m/s 763 mmHg 96%
    04:00 +13°C° 0 mm 5 m/s 763 mmHg 96%
    05:00 +13°C° 0 mm 4 m/s 764 mmHg 96%
    06:00 +13°C° 0 mm 4 m/s 764 mmHg 96%
    07:00 +13°C° 0 mm 4 m/s 764 mmHg 96%
    08:00 +15°C° 0 mm 4 m/s 764 mmHg 85%
    09:00 +19°C° 0 mm 5 m/s 764 mmHg 75%
    10:00 +21°C° 0 mm 5 m/s 764 mmHg 64%
    11:00 +22°C° 0 mm 5 m/s 764 mmHg 61%
    12:00 +22°C° 0 mm 5 m/s 763 mmHg 58%
    13:00 +23°C° 0 mm 4 m/s 762 mmHg 55%
    14:00 +22°C° 0 mm 5 m/s 763 mmHg 59%
    15:00 +22°C° 0 mm 5 m/s 763 mmHg 62%
    16:00 +21°C° 0 mm 5 m/s 763 mmHg 66%
    17:00 +19°C° 0.1 mm 4 m/s 763 mmHg 74%
    18:00 +18°C° 0.1 mm 4 m/s 763 mmHg 83%
    19:00 +15°C° 0.1 mm 4 m/s 763 mmHg 92%
    20:00 +16°C° 0.1 mm 3 m/s 763 mmHg 93%
    21:00 +16°C° 0.1 mm 3 m/s 764 mmHg 94%
    22:00 +16°C° 0.1 mm 3 m/s 764 mmHg 95%
    23:00 +16°C° 0.2 mm 3 m/s 763 mmHg 95%

    Demain, 31 Mai, Dimanche

    Heure Température Précipitation Vent Pression Humidité
    00:00 +16°C° 0.2 mm 3 m/s 763 mmHg 94%
    01:00 +16°C° 0.2 mm 3 m/s 762 mmHg 94%
    02:00 +16°C° 0.1 mm 2 m/s 762 mmHg 94%
    03:00 +16°C° 0.1 mm 2 m/s 762 mmHg 93%
    04:00 +16°C° 0.1 mm 2 m/s 762 mmHg 92%
    05:00 +16°C° 0 mm 2 m/s 762 mmHg 93%
    06:00 +16°C° 0 mm 2 m/s 763 mmHg 93%
    07:00 +15°C° 0 mm 2 m/s 763 mmHg 94%
    08:00 +17°C° 0 mm 2 m/s 763 mmHg 85%
    09:00 +20°C° 0 mm 1 m/s 763 mmHg 75%
    10:00 +22°C° 0 mm 1 m/s 763 mmHg 66%
    11:00 +23°C° 0 mm 1 m/s 762 mmHg 62%
    12:00 +23°C° 0 mm 1 m/s 762 mmHg 59%
    13:00 +24°C° 0 mm 1 m/s 761 mmHg 55%
    14:00 +23°C° 0 mm 1 m/s 761 mmHg 61%
    15:00 +22°C° 0 mm 1 m/s 761 mmHg 66%
    16:00 +21°C° 0 mm 1 m/s 761 mmHg 71%
    17:00 +20°C° 0 mm 1 m/s 761 mmHg 77%
    18:00 +18°C° 0 mm 1 m/s 761 mmHg 82%
    19:00 +15°C° 0 mm 1 m/s 761 mmHg 87%
    20:00 +15°C° 0 mm 1 m/s 761 mmHg 88%
    21:00 +15°C° 0 mm 1 m/s 761 mmHg 89%
    22:00 +15°C° 0 mm 1 m/s 761 mmHg 90%
    23:00 +15°C° 0 mm 1 m/s 761 mmHg 90%

    Après-demain, 1 Juin, Lundi

    Heure Température Précipitation Vent Pression Humidité
    00:00 +15°C° 0 mm 1 m/s 760 mmHg 90%
    01:00 +14°C° 0 mm 2 m/s 760 mmHg 90%
    02:00 +14°C° 0 mm 2 m/s 760 mmHg 90%
    03:00 +14°C° 0 mm 2 m/s 759 mmHg 90%
    04:00 +14°C° 0 mm 2 m/s 759 mmHg 90%
    05:00 +14°C° 0 mm 2 m/s 759 mmHg 90%
    06:00 +15°C° 0 mm 2 m/s 760 mmHg 89%
    07:00 +15°C° 0 mm 2 m/s 760 mmHg 89%
    08:00 +17°C° 0 mm 2 m/s 760 mmHg 79%
    09:00 +20°C° 0 mm 3 m/s 760 mmHg 69%
    10:00 +22°C° 0 mm 3 m/s 759 mmHg 59%
    11:00 +24°C° 0 mm 3 m/s 759 mmHg 55%
    12:00 +23°C° 0 mm 4 m/s 758 mmHg 50%
    13:00 +25°C° 0 mm 4 m/s 757 mmHg 46%
    14:00 +25°C° 0 mm 4 m/s 757 mmHg 49%
    15:00 +23°C° 0 mm 4 m/s 757 mmHg 52%
    16:00 +23°C° 0 mm 4 m/s 757 mmHg 55%
    17:00 +21°C° 0 mm 4 m/s 757 mmHg 62%
    18:00 +20°C° 0 mm 4 m/s 757 mmHg 68%
    19:00 +19°C° 0 mm 5 m/s 757 mmHg 74%
    20:00 +17°C° 0 mm 5 m/s 757 mmHg 76%
    21:00 +17°C° 0 mm 5 m/s 757 mmHg 79%
    22:00 +17°C° 0 mm 5 m/s 757 mmHg 81%
    23:00 +17°C° 0 mm 4 m/s 757 mmHg 80%

    2 Juin, Mardi

    Heure Température Précipitation Vent Pression Humidité
    00:00 +15°C° 0 mm 4 m/s 757 mmHg 79%
    01:00 +16°C° 0 mm 3 m/s 757 mmHg 78%
    02:00 +14°C° 0 mm 4 m/s 757 mmHg 76%
    03:00 +13°C° 0 mm 4 m/s 757 mmHg 74%
    04:00 +12°C° 0 mm 4 m/s 757 mmHg 72%
    05:00 +12°C° 0 mm 4 m/s 758 mmHg 72%
    06:00 +11°C° 0 mm 4 m/s 759 mmHg 73%
    07:00 +10°C° 0 mm 4 m/s 759 mmHg 73%
    08:00 +12°C° 0 mm 4 m/s 759 mmHg 61%
    09:00 +14°C° 0 mm 4 m/s 760 mmHg 48%
    10:00 +17°C° 0 mm 3 m/s 760 mmHg 36%
    11:00 +18°C° 0 mm 3 m/s 759 mmHg 34%
    12:00 +19°C° 0 mm 3 m/s 759 mmHg 32%
    13:00 +20°C° 0 mm 3 m/s 758 mmHg 30%
    14:00 +19°C° 0 mm 3 m/s 758 mmHg 35%
    15:00 +19°C° 0 mm 3 m/s 759 mmHg 39%
    16:00 +18°C° 0 mm 3 m/s 759 mmHg 43%
    17:00 +16°C° 0 mm 3 m/s 759 mmHg 49%
    18:00 +13°C° 0 mm 3 m/s 760 mmHg 54%
    19:00 +11°C° 0 mm 3 m/s 761 mmHg 60%
    20:00 +11°C° 0 mm 3 m/s 761 mmHg 63%
    21:00 +10°C° 0 mm 3 m/s 761 mmHg 66%
    22:00 +9°C° 0 mm 3 m/s 762 mmHg 69%
    23:00 +9°C° 0 mm 2 m/s 762 mmHg 70%

    3 Juin, Mercredi

    Heure Température Précipitation Vent Pression Humidité
    00:00 +8°C° 0 mm 2 m/s 762 mmHg 71%
    01:00 +8°C° 0 mm 2 m/s 762 mmHg 72%
    02:00 +8°C° 0 mm 2 m/s 762 mmHg 72%
    03:00 +8°C° 0 mm 2 m/s 762 mmHg 72%
    04:00 +7°C° 0 mm 2 m/s 762 mmHg 73%
    05:00 +8°C° 0 mm 2 m/s 763 mmHg 72%
    06:00 +8°C° 0 mm 2 m/s 763 mmHg 71%
    07:00 +8°C° 0 mm 2 m/s 764 mmHg 70%
    08:00 +12°C° 0 mm 2 m/s 764 mmHg 61%
    09:00 +16°C° 0 mm 1 m/s 764 mmHg 53%
    10:00 +20°C° 0 mm 1 m/s 764 mmHg 44%
    11:00 +20°C° 0 mm 2 m/s 764 mmHg 44%
    12:00 +20°C° 0 mm 2 m/s 764 mmHg 44%
    13:00 +21°C° 0 mm 3 m/s 763 mmHg 43%
    14:00 +20°C° 0 mm 3 m/s 763 mmHg 47%
    15:00 +20°C° 0 mm 4 m/s 763 mmHg 51%
    16:00 +19°C° 0 mm 4 m/s 763 mmHg 55%
    17:00 +17°C° 0 mm 4 m/s 764 mmHg 63%
    18:00 +14°C° 0 mm 4 m/s 765 mmHg 70%
    19:00 +12°C° 0 mm 4 m/s 765 mmHg 78%
    20:00 +11°C° 0 mm 4 m/s 765 mmHg 78%
    21:00 +11°C° 0 mm 3 m/s 766 mmHg 79%
    22:00 +11°C° 0 mm 3 m/s 766 mmHg 79%
    23:00 +11°C° 0 mm 3 m/s 766 mmHg 82%

    4 Juin, Jeudi

    Heure Température Précipitation Vent Pression Humidité
    00:00 +11°C° 0 mm 3 m/s 766 mmHg 84%
    01:00 +11°C° 0 mm 3 m/s 765 mmHg 87%
    02:00 +10°C° 0 mm 4 m/s 765 mmHg 89%
    03:00 +10°C° 0 mm 4 m/s 765 mmHg 90%
    04:00 +10°C° 0 mm 4 m/s 765 mmHg 92%
    05:00 +10°C° 0 mm 5 m/s 766 mmHg 91%
    06:00 +10°C° 0 mm 5 m/s 766 mmHg 91%
    07:00 +10°C° 0 mm 5 m/s 767 mmHg 91%
    08:00 +14°C° 0 mm 5 m/s 767 mmHg 81%
    09:00 +16°C° 0 mm 5 m/s 767 mmHg 71%
    10:00 +19°C° 0 mm 6 m/s 767 mmHg 62%
    11:00 +20°C° 0 mm 6 m/s 766 mmHg 59%
    12:00 +21°C° 0 mm 6 m/s 766 mmHg 56%
    13:00 +21°C° 0 mm 6 m/s 766 mmHg 53%
    14:00 +21°C° 0 mm 6 m/s 766 mmHg 57%
    15:00 +20°C° 0 mm 6 m/s 766 mmHg 62%
    16:00 +19°C° 0 mm 6 m/s 766 mmHg 66%
    17:00 +17°C° 0 mm 5 m/s 766 mmHg 74%
    18:00 +15°C° 0 mm 5 m/s 767 mmHg 83%
    19:00 +13°C° 0 mm 5 m/s 767 mmHg 91%
    20:00 +13°C° 0 mm 5 m/s 767 mmHg 92%
    21:00 +13°C° 0 mm 4 m/s 767 mmHg 93%
    22:00 +12°C° 0 mm 4 m/s 767 mmHg 94%
    23:00 +12°C° 0 mm 4 m/s 767 mmHg 94%
    Voir plus